Location: Newark
(54.2500°N, 9.1833°E)
Time: 15:30:00
(UTC+00:00)

A-11 Canister half - Pass Details

Date: 11 December 2019
Orbit: 1517 x 1683 km, 47.2° (Epoch: 22 January)

Event Time Altitude Azimuth Distance (km) Brightness Sun altitude
Rises 15:51:30 0° 276° (W) 4,839 12.6 -7.0°
Reaches altitude 10° 15:54:43 10° 271° (W) 3,873 12.2 -7.4°
Maximum altitude 16:04:03 48° 202° (SSW) 2,084 10.1 -8.6°
Drops below altitude 10° 16:13:34 10° 132° (SE) 3,942 10.9 -9.9°
Sets 16:16:52 0° 127° (SE) 4,930 11.4 -10.3°
